Time,TemperatureF,DewpointF,PressureIn,WindDirection,WindDirectionDegrees,WindSpeedMPH,WindSpeedGustMPH,Humidity,HourlyPrecipIn,Conditions,Clouds,dailyrainin,SoftwareType,DateUTC
2013-03-24 00:13:00,66.0,64.0,29.69,SSE,150,9.0,9.0,94,0.00,,,0.00,weatherlink.com 1.10,2013-03-24 04:13:00,
2013-03-24 00:28:00,66.6,65.0,29.69,South,169,13.0,16.0,94,0.00,,,0.00,weatherlink.com 1.10,2013-03-24 04:28:00,
2013-03-24 00:43:00,66.6,65.0,29.68,SSE,153,11.0,16.0,94,0.00,,,0.00,weatherlink.com 1.10,2013-03-24 04:43:00,
2013-03-24 00:58:00,66.4,65.0,29.68,SSE,155,13.0,16.0,94,0.00,,,0.00,weatherlink.com 1.10,2013-03-24 04:58:00,
2013-03-24 01:13:00,66.5,65.0,29.68,ESE,117,10.0,16.0,94,0.00,,,0.00,weatherlink.com 1.10,2013-03-24 05:13:00,
2013-03-24 01:30:00,66.5,65.0,29.67,South,169,11.0,16.0,94,0.00,,,0.00,weatherlink.com 1.10,2013-03-24 05:30:00,
2013-03-24 01:44:00,66.4,65.0,29.67,SSE,158,10.0,17.0,94,0.00,,,0.00,weatherlink.com 1.10,2013-03-24 05:44:00,
2013-03-24 01:58:00,66.4,65.0,29.66,SSE,158,9.0,15.0,94,0.00,,,0.00,weatherlink.com 1.10,2013-03-24 05:58:00,
2013-03-24 02:13:00,66.4,65.0,29.66,South,169,13.0,14.0,94,0.00,,,0.00,weatherlink.com 1.10,2013-03-24 06:13:00,
2013-03-24 02:28:00,65.9,64.0,29.65,SSE,158,9.0,13.0,94,0.00,,,0.00,weatherlink.com 1.10,2013-03-24 06:28:00,
2013-03-24 02:43:00,65.8,64.0,29.64,SSE,162,8.0,11.0,95,0.00,,,0.00,weatherlink.com 1.10,2013-03-24 06:43:00,
2013-03-24 02:58:00,65.8,64.0,29.63,SSE,158,9.0,10.0,95,0.00,,,0.00,weatherlink.com 1.10,2013-03-24 06:58:00,
2013-03-24 03:13:00,66.0,65.0,29.63,SE,145,10.0,12.0,95,0.00,,,0.00,weatherlink.com 1.10,2013-03-24 07:13:00,
2013-03-24 03:28:00,66.1,65.0,29.63,SE,136,7.0,12.0,95,0.00,,,0.00,weatherlink.com 1.10,2013-03-24 07:28:00,
2013-03-24 03:43:00,65.8,64.0,29.63,SSE,164,7.0,9.0,95,0.00,,,0.00,weatherlink.com 1.10,2013-03-24 07:43:00,
2013-03-24 03:58:00,65.7,64.0,29.63,SSE,165,5.0,8.0,95,0.00,,,0.00,weatherlink.com 1.10,2013-03-24 07:58:00,
2013-03-24 04:29:00,65.2,64.0,29.61,SSE,166,3.0,4.0,95,0.00,,,0.00,weatherlink.com 1.10,2013-03-24 08:29:00,
2013-03-24 04:44:00,66.2,65.0,29.62,SSE,151,4.0,6.0,95,0.00,,,0.00,weatherlink.com 1.10,2013-03-24 08:44:00,
2013-03-24 04:59:00,66.0,65.0,29.60,South,169,1.0,3.0,95,0.00,,,0.00,weatherlink.com 1.10,2013-03-24 08:59:00,
2013-03-24 05:14:00,66.3,65.0,29.59,SSE,160,4.0,5.0,95,0.00,,,0.00,weatherlink.com 1.10,2013-03-24 09:14:00,
2013-03-24 05:29:00,66.6,65.0,29.58,South,184,6.0,8.0,95,0.00,,,0.00,weatherlink.com 1.10,2013-03-24 09:29:00,
2013-03-24 05:44:00,66.7,65.0,29.56,East,89,5.0,9.0,95,0.00,,,0.00,weatherlink.com 1.10,2013-03-24 09:44:00,
2013-03-24 05:59:00,67.3,66.0,29.56,SSE,161,8.0,13.0,95,0.01,,,0.01,weatherlink.com 1.10,2013-03-24 09:59:00,
2013-03-24 06:14:00,67.9,67.0,29.59,SSW,194,18.0,27.0,95,0.05,,,0.05,weatherlink.com 1.10,2013-03-24 10:14:00,
2013-03-24 06:31:00,68.5,67.0,29.56,SW,221,6.0,21.0,95,0.07,,,0.07,weatherlink.com 1.10,2013-03-24 10:31:00,
2013-03-24 06:44:00,68.9,67.0,29.56,South,181,10.0,17.0,94,0.16,,,0.16,weatherlink.com 1.10,2013-03-24 10:44:00,
2013-03-24 06:59:00,67.9,66.0,29.57,SSW,212,13.0,21.0,94,0.15,,,0.16,weatherlink.com 1.10,2013-03-24 10:59:00,
2013-03-24 07:14:00,67.1,65.0,29.59,WSW,249,15.0,25.0,94,0.18,,,0.23,weatherlink.com 1.10,2013-03-24 11:14:00,
2013-03-24 07:29:00,67.5,66.0,29.59,West,276,3.0,11.0,94,0.18,,,0.25,weatherlink.com 1.10,2013-03-24 11:29:00,
2013-03-24 07:44:00,67.3,66.0,29.59,SW,222,5.0,9.0,94,0.09,,,0.25,weatherlink.com 1.10,2013-03-24 11:44:00,
2013-03-24 07:59:00,66.7,65.0,29.60,SSW,200,1.0,6.0,94,0.09,,,0.25,weatherlink.com 1.10,2013-03-24 11:59:00,
2013-03-24 08:14:00,66.9,65.0,29.61,West,277,2.0,8.0,94,0.01,,,0.25,weatherlink.com 1.10,2013-03-24 12:14:00,
2013-03-24 08:29:00,67.6,66.0,29.60,WSW,237,2.0,9.0,95,0.00,,,0.25,weatherlink.com 1.10,2013-03-24 12:29:00,
2013-03-24 08:44:00,69.6,68.0,29.61,West,269,6.0,11.0,95,0.00,,,0.25,weatherlink.com 1.10,2013-03-24 12:44:00,
2013-03-24 08:59:00,69.8,68.0,29.62,West,271,8.0,12.0,94,0.00,,,0.25,weatherlink.com 1.10,2013-03-24 12:59:00,
2013-03-24 09:14:00,69.8,68.0,29.63,West,259,3.0,14.0,94,0.01,,,0.26,weatherlink.com 1.10,2013-03-24 13:14:00,
2013-03-24 09:29:00,69.8,68.0,29.64,West,265,6.0,13.0,94,0.01,,,0.26,weatherlink.com 1.10,2013-03-24 13:29:00,
2013-03-24 09:44:00,69.8,68.0,29.64,SSW,211,3.0,13.0,94,0.01,,,0.26,weatherlink.com 1.10,2013-03-24 13:44:00,
2013-03-24 09:59:00,69.9,68.0,29.65,West,271,6.0,14.0,94,0.01,,,0.26,weatherlink.com 1.10,2013-03-24 13:59:00,
2013-03-24 10:14:00,70.4,68.0,29.65,SSE,159,4.0,13.0,93,0.00,,,0.26,weatherlink.com 1.10,2013-03-24 14:14:00,
2013-03-24 10:29:00,70.5,68.0,29.66,NW,306,4.0,14.0,93,0.00,,,0.26,weatherlink.com 1.10,2013-03-24 14:29:00,
2013-03-24 10:44:00,70.9,69.0,29.67,West,281,2.0,10.0,93,0.00,,,0.26,weatherlink.com 1.10,2013-03-24 14:44:00,
2013-03-24 10:59:00,71.3,69.0,29.67,WSW,248,3.0,9.0,93,0.00,,,0.26,weatherlink.com 1.10,2013-03-24 14:59:00,
2013-03-24 11:14:00,70.0,68.0,29.66,SW,219,3.0,10.0,93,0.00,,,0.26,weatherlink.com 1.10,2013-03-24 15:14:00,
2013-03-24 11:29:00,69.6,68.0,29.65,SW,231,5.0,7.0,93,0.00,,,0.26,weatherlink.com 1.10,2013-03-24 15:29:00,
2013-03-24 11:44:00,69.7,68.0,29.66,SW,226,4.0,7.0,93,0.00,,,0.26,weatherlink.com 1.10,2013-03-24 15:44:00,
2013-03-24 11:59:00,70.4,68.0,29.66,South,176,1.0,6.0,92,0.00,,,0.26,weatherlink.com 1.10,2013-03-24 15:59:00,
2013-03-24 12:14:00,71.0,68.0,29.66,SW,219,4.0,6.0,91,0.00,,,0.26,weatherlink.com 1.10,2013-03-24 16:14:00,
2013-03-24 12:29:00,71.4,69.0,29.66,WSW,249,6.0,6.0,91,0.00,,,0.26,weatherlink.com 1.10,2013-03-24 16:29:00,
2013-03-24 12:44:00,71.7,69.0,29.67,WSW,243,6.0,10.0,91,0.00,,,0.26,weatherlink.com 1.10,2013-03-24 16:44:00,
2013-03-24 12:59:00,74.0,71.0,29.66,WNW,291,6.0,14.0,89,0.00,,,0.26,weatherlink.com 1.10,2013-03-24 16:59:00,
2013-03-24 13:15:00,74.0,70.0,29.68,WNW,293,9.0,14.0,86,0.00,,,0.26,weatherlink.com 1.10,2013-03-24 17:15:00,
2013-03-24 13:31:00,73.7,69.0,29.67,NW,304,4.0,16.0,86,0.00,,,0.26,weatherlink.com 1.10,2013-03-24 17:31:00,
2013-03-24 13:45:00,73.4,69.0,29.68,NW,307,4.0,13.0,86,0.00,,,0.26,weatherlink.com 1.10,2013-03-24 17:45:00,
2013-03-24 14:00:00,73.1,69.0,29.67,West,260,8.0,18.0,86,0.00,,,0.26,weatherlink.com 1.10,2013-03-24 18:00:00,
2013-03-24 14:15:00,72.6,69.0,29.66,SW,218,5.0,13.0,87,0.00,,,0.26,weatherlink.com 1.10,2013-03-24 18:15:00,
2013-03-24 14:30:00,72.5,69.0,29.66,West,280,5.0,15.0,88,0.00,,,0.26,weatherlink.com 1.10,2013-03-24 18:30:00,
2013-03-24 14:45:00,72.3,68.0,29.65,West,273,2.0,14.0,86,0.00,,,0.26,weatherlink.com 1.10,2013-03-24 18:45:00,
2013-03-24 15:00:00,73.1,68.0,29.64,NW,308,10.0,12.0,85,0.00,,,0.26,weatherlink.com 1.10,2013-03-24 19:00:00,
2013-03-24 15:15:00,73.8,69.0,29.64,WSW,257,6.0,11.0,84,0.00,,,0.26,weatherlink.com 1.10,2013-03-24 19:15:00,
2013-03-24 15:30:00,74.2,69.0,29.63,SW,234,3.0,11.0,83,0.00,,,0.26,weatherlink.com 1.10,2013-03-24 19:30:00,
2013-03-24 15:45:00,73.9,69.0,29.64,SSE,165,3.0,15.0,85,0.00,,,0.26,weatherlink.com 1.10,2013-03-24 19:45:00,
2013-03-24 16:00:00,73.7,68.0,29.63,WSW,251,2.0,13.0,83,0.00,,,0.26,weatherlink.com 1.10,2013-03-24 20:00:00,
2013-03-24 16:15:00,72.9,68.0,29.64,North,4,15.0,15.0,84,0.00,,,0.26,weatherlink.com 1.10,2013-03-24 20:15:00,
2013-03-24 16:30:00,71.7,67.0,29.64,WNW,293,7.0,15.0,86,0.00,,,0.26,weatherlink.com 1.10,2013-03-24 20:30:00,
2013-03-24 16:45:00,71.2,67.0,29.64,SSE,164,3.0,14.0,86,0.00,,,0.26,weatherlink.com 1.10,2013-03-24 20:45:00,
2013-03-24 17:00:00,71.4,67.0,29.64,WNW,296,4.0,15.0,86,0.00,,,0.26,weatherlink.com 1.10,2013-03-24 21:00:00,
2013-03-24 17:15:00,71.2,67.0,29.63,West,261,7.0,13.0,85,0.00,,,0.26,weatherlink.com 1.10,2013-03-24 21:15:00,
2013-03-24 17:30:00,71.2,67.0,29.64,East,97,2.0,12.0,85,0.00,,,0.26,weatherlink.com 1.10,2013-03-24 21:30:00,
2013-03-24 17:45:00,71.1,66.0,29.64,WSW,237,7.0,14.0,85,0.00,,,0.26,weatherlink.com 1.10,2013-03-24 21:45:00,
2013-03-24 18:00:00,70.9,67.0,29.63,West,264,5.0,11.0,86,0.00,,,0.26,weatherlink.com 1.10,2013-03-24 22:00:00,
2013-03-24 18:15:00,70.9,66.0,29.63,West,260,8.0,13.0,85,0.00,,,0.26,weatherlink.com 1.10,2013-03-24 22:15:00,
2013-03-24 18:30:00,70.3,66.0,29.64,NW,315,4.0,12.0,87,0.00,,,0.26,weatherlink.com 1.10,2013-03-24 22:30:00,
2013-03-24 18:46:00,70.2,66.0,29.64,WNW,298,5.0,11.0,86,0.00,,,0.26,weatherlink.com 1.10,2013-03-24 22:46:00,
2013-03-24 19:00:00,69.3,66.0,29.63,WSW,253,0.0,9.0,88,0.00,,,0.26,weatherlink.com 1.10,2013-03-24 23:00:00,
2013-03-24 19:15:00,68.3,65.0,29.64,SW,235,5.0,12.0,89,0.00,,,0.26,weatherlink.com 1.10,2013-03-24 23:15:00,
2013-03-24 19:30:00,67.3,64.0,29.64,SSW,205,5.0,11.0,90,0.00,,,0.26,weatherlink.com 1.10,2013-03-24 23:30:00,
2013-03-24 19:45:00,66.5,64.0,29.64,SSE,162,2.0,9.0,91,0.00,,,0.26,weatherlink.com 1.10,2013-03-24 23:45:00,
2013-03-24 20:00:00,66.1,64.0,29.65,West,276,3.0,16.0,92,0.00,,,0.26,weatherlink.com 1.10,2013-03-25 00:00:00,
2013-03-24 20:17:00,66.2,64.0,29.65,WNW,287,2.0,10.0,91,0.00,,,0.26,weatherlink.com 1.10,2013-03-25 00:17:00,
2013-03-24 20:30:00,66.1,64.0,29.66,West,274,8.0,11.0,91,0.00,,,0.26,weatherlink.com 1.10,2013-03-25 00:30:00,
2013-03-24 20:45:00,66.0,63.0,29.67,SW,215,4.0,10.0,91,0.00,,,0.26,weatherlink.com 1.10,2013-03-25 00:45:00,
2013-03-24 21:00:00,66.0,63.0,29.67,SW,233,5.0,14.0,91,0.00,,,0.26,weatherlink.com 1.10,2013-03-25 01:00:00,
2013-03-24 21:15:00,65.9,64.0,29.68,WNW,285,7.0,14.0,92,0.00,,,0.26,weatherlink.com 1.10,2013-03-25 01:15:00,
2013-03-24 21:30:00,65.9,64.0,29.69,South,184,1.0,13.0,92,0.00,,,0.26,weatherlink.com 1.10,2013-03-25 01:30:00,
2013-03-24 21:46:00,66.1,63.0,29.70,WNW,283,8.0,16.0,90,0.00,,,0.26,weatherlink.com 1.10,2013-03-25 01:46:00,
2013-03-24 22:00:00,66.1,63.0,29.70,SW,221,3.0,21.0,89,0.00,,,0.26,weatherlink.com 1.10,2013-03-25 02:00:00,
2013-03-24 22:15:00,66.1,63.0,29.71,SSE,148,1.0,14.0,88,0.00,,,0.26,weatherlink.com 1.10,2013-03-25 02:15:00,
2013-03-24 22:30:00,66.4,63.0,29.72,NE,40,2.0,17.0,87,0.00,,,0.26,weatherlink.com 1.10,2013-03-25 02:30:00,
2013-03-24 22:46:00,66.0,59.0,29.73,North,353,4.0,15.0,79,0.00,,,0.26,weatherlink.com 1.10,2013-03-25 02:46:00,
2013-03-24 23:01:00,65.7,59.0,29.73,WNW,298,4.0,16.0,79,0.00,,,0.26,weatherlink.com 1.10,2013-03-25 03:01:00,
2013-03-24 23:16:00,65.1,53.0,29.75,NNE,22,5.0,21.0,65,0.00,,,0.26,weatherlink.com 1.10,2013-03-25 03:16:00,
2013-03-24 23:45:00,64.1,55.0,29.76,WSW,252,3.0,19.0,72,0.00,,,0.26,weatherlink.com 1.10,2013-03-25 03:45:00,